{"data":{"norad_id":57094,"intl_designator":"2023-088AY","name":"STARLINK-6235","alt_names":[],"object_type":"PAYLOAD","status":"ACTIVE","operator":null,"country":"US","launch_date":"2023-06-22","launch_site_code":"AFWTR","launch_vehicle":null,"mission":null,"orbit_class":"UNKNOWN","rcs_meters":null,"size_class":null,"mass_kg":null,"dimensions":null,"purposes":["comms"],"wikipedia_slug":null,"has_3d_model":false,"image_url":null,"decayed_at":null,"tle_current":{"epoch":"2026-09-19T21:47:44.164320Z","epoch_age_seconds":172139,"freshness":"FRESH","line1":"1 57094U 23088AY  26262.90815005  .00000000  00000+0  95446-5 0  9994","line2":"2 57094  43.0021  79.2647 0001362 266.7847  93.2849 15.27576011180205","mean_motion":15.27576011,"eccentricity":0.0001362,"inclination_deg":43.0021,"raan_deg":79.2647,"arg_perigee_deg":266.7847,"mean_anomaly_deg":93.2849,"bstar":9.5446e-6,"rev_number":18020,"period_min":94.266994874928,"perigee_km":482.12654539356,"apogee_km":483.99553573981,"semimajor_km":6861.1980405667,"source":"CELESTRAK","updated_at":"2026-09-21T09:00:33.557596Z"}}}